O3B FM14 (43233 NORAD) Tracking and Keplerian Element Data

This shows tracking and keplerian element data for the satellite.

Feedback or suggestion? Click here.




ElementValue
Catalog43233
NameO3B FM14
Epoch Orbit1255
Epoch Day319.30560923
Epoch Year2018
RAAN359.4528
Inclination0.0365
Eccentricity0.0002966
Argument of Perigee240.9256
Mean Anonmoly119.5978
Mean Motion5.00115644
Decay Rate-2.4E-07
L11 43233U 18024C 18319.30560923 -.00000024 00000-0 00000-0 0 9997
L22 43233 0.0365 359.4528 0002966 240.9256 119.5978 5.00115644 12557

Live tracking and technical data element details for O3B FM14 (NORAD 43233). O3B FM14 can be tracked NOW for your location showing map with azimuth and elevation plus other details from your city location.

Track the satellite on the map from your city or location and see movement details for azimuth, elevation, latitude, longitude, range, height, and movement on the map or in text.







IsCatalogInMostPopularTable: catalog: 43233, numindb: 84
Update: records affected: 1



GetName: 43233 O3B FM14

Hit Count: updated at: Sat, 17 Nov 2018 03:18:23 GMT